Location: Mahannah Oil Field
(37.4664°N, 96.6003°W)
Time: 15:43:06
(UTC+00:00)

Vanguard 2 Rocket - Pass Details

Date: 25 January 2021
Orbit: 554 x 3325 km, 32.9° (Epoch: 06 March)

Event Time Altitude Azimuth Distance (km) Brightness Sun altitude
Rises 00:08:21 0° 267° (W) 5,690 12.7 -5.7°
Reaches altitude 10° 00:12:51 10° 265° (W) 4,222 11.9 -6.5°
Maximum altitude 00:22:55 62° 189° (S) 1,302 7.8 -8.4°
Drops below altitude 10° 00:28:38 10° 109° (ESE) 2,459 8.6 -9.5°
Enters shadow 00:29:19 - 107° (ESE) 2,704 8.8 -9.6°
Sets 00:30:38 0° 105° (ESE) 3,195 - -9.9°
